DLH101 EDDM-EDDF

Flight info

Callsign DLH101
Flight time N/A
Altitude 24000
Route GIVMI6S GIVMI Y101 ERNAS T161 DEBHI DEBHI1B
Aircraft A321/M-SDE3FGHIRWY/LB1

Departure

Time 2026-05-04 20:06
Airport Munich Airport (EDDM)

Arrival

Time N/A
Airport Frankfurt Main Airport (EDDF)
Time Latitude Longitude Altitude Speed Heading
2026-05-04 19:16 48.35284 11.79781 1486 ft 0 kts 82°
2026-05-04 19:52 48.35282 11.79760 1485 ft 4 kts 78°
2026-05-04 19:52 48.35274 11.79721 1480 ft 4 kts 68°
2026-05-04 19:53 48.35262 11.79685 1473 ft 4 kts 56°
2026-05-04 19:53 48.35246 11.79654 1478 ft 4 kts 40°
2026-05-04 19:53 48.35224 11.79634 1479 ft 4 kts
2026-05-04 19:53 48.35214 11.79633 1477 ft 0 kts 353°
2026-05-04 19:57 48.35222 11.79631 1485 ft 3 kts 353°
2026-05-04 19:57 48.35259 11.79625 1482 ft 7 kts 353°
2026-05-04 19:57 48.35315 11.79615 1475 ft 10 kts 353°
2026-05-04 19:58 48.35390 11.79601 1481 ft 12 kts 353°
2026-05-04 19:58 48.35479 11.79585 1473 ft 14 kts 353°
2026-05-04 19:58 48.35578 11.79567 1473 ft 15 kts 353°
2026-05-04 19:58 48.35688 11.79548 1481 ft 17 kts 353°
2026-05-04 19:59 48.35808 11.79528 1476 ft 18 kts 354°
2026-05-04 19:59 48.35937 11.79506 1485 ft 19 kts 352°
2026-05-04 19:59 48.36054 11.79485 1481 ft 15 kts 354°
2026-05-04 19:59 48.36160 11.79468 1479 ft 15 kts 354°
2026-05-04 20:00 48.36220 11.79564 1485 ft 15 kts 82°
2026-05-04 20:00 48.36233 11.79728 1485 ft 17 kts 83°
2026-05-04 20:00 48.36247 11.79907 1485 ft 18 kts 83°
2026-05-04 20:00 48.36263 11.80101 1485 ft 19 kts 83°
2026-05-04 20:01 48.36279 11.80308 1475 ft 21 kts 83°
2026-05-04 20:01 48.36295 11.80529 1480 ft 22 kts 83°
2026-05-04 20:01 48.36313 11.80762 1477 ft 23 kts 83°
2026-05-04 20:01 48.36332 11.81005 1485 ft 24 kts 83°
2026-05-04 20:02 48.36352 11.81260 1474 ft 25 kts 83°
2026-05-04 20:02 48.36372 11.81525 1481 ft 26 kts 83°
2026-05-04 20:02 48.36391 11.81759 1481 ft 17 kts 83°
2026-05-04 20:02 48.36395 11.81932 1485 ft 16 kts 94°
2026-05-04 20:03 48.36474 11.81998 1474 ft 16 kts 352°
2026-05-04 20:03 48.36552 11.81984 1484 ft 0 kts 353°
2026-05-04 20:03 48.36557 11.81983 1485 ft 2 kts 353°
2026-05-04 20:04 48.36583 11.81979 1480 ft 5 kts 353°
2026-05-04 20:04 48.36633 11.81969 1479 ft 10 kts 348°
2026-05-04 20:04 48.36669 11.81877 1482 ft 12 kts 267°
2026-05-04 20:04 48.36666 11.81830 1476 ft 0 kts 264°
2026-05-04 20:05 48.36662 11.81777 1478 ft 24 kts 264°
2026-05-04 20:06 48.36612 11.81112 1486 ft 102 kts 263°
2026-05-04 20:06 48.36506 11.79740 1487 ft 162 kts 263°
2026-05-04 20:06 48.36372 11.77972 2088 ft 167 kts 265°
2026-05-04 20:06 48.36245 11.76239 2783 ft 173 kts 264°
2026-05-04 20:07 48.36106 11.74349 3202 ft 193 kts 263°